Location: Kalberh�ni
(46.4610°N, 7.2453°E)
Time: 08:55:24
(UTC+00:00)

Cosmos 1455 - Pass Details

Date: 26 October 2021
Orbit: 496 x 520 km, 82.5° (Epoch: 27 November)

Event Time Altitude Azimuth Distance (km) Brightness Sun altitude
Rises 18:46:15 0° 200° (SSW) 2,619 5.9 -24.8°
Reaches altitude 10° 18:48:26 10° 206° (SSW) 1,733 5.0 -25.2°
Enters shadow 18:51:56 48° 271° (W) 676 3.1 -25.8°
